,,Stat5,,Stat1,,Stat2,,Stat3,,Stat4,,Wind1,,Wind1,
time,status,PA1M_AVG,status,PR1M_SUM,status,RH1M_AVG,status,SR1M_AVG,status,TA1M_AVG,status,W1dAve1m,status,W1sAve1m,
2002-07-19, 00:00:00,VALID,919.125,VALID,0,VALID,97.6134,VALID,0,VALID,19.534,VALID,65,VALID,0.934462,
2002-07-19, 00:01:00,VALID,919.111,VALID,0,VALID,97.7877,VALID,0,VALID,19.534,VALID,62,VALID,0.864784,
2002-07-19, 00:02:00,VALID,919.077,VALID,0,VALID,97.7622,VALID,0,VALID,19.5246,VALID,52,VALID,0.947917,
2002-07-19, 00:03:00,VALID,919.054,VALID,0,VALID,97.7902,VALID,0,VALID,19.5082,VALID,53,VALID,1.10605,
2002-07-19, 00:04:00,VALID,919.033,VALID,0,VALID,97.8741,VALID,0.0849042,VALID,19.494,VALID,61,VALID,1.14732,
2002-07-19, 00:05:00,VALID,918.986,VALID,0,VALID,98.0801,VALID,0.0679233,VALID,19.5002,VALID,80,VALID,1.14453,
2002-07-19, 00:06:00,VALID,918.967,VALID,0,VALID,98.2721,VALID,0.0679233,VALID,19.5231,VALID,84,VALID,1.22461,
2002-07-19, 00:07:00,VALID,918.937,VALID,0,VALID,98.3065,VALID,0.0849042,VALID,19.5166,VALID,91,VALID,1.07348,
2002-07-19, 00:08:00,VALID,918.914,VALID,0,VALID,98.3688,VALID,0.101885,VALID,19.5072,VALID,94,VALID,1.15759,
2002-07-19, 00:09:00,VALID,918.898,VALID,0,VALID,98.5494,VALID,0.0679233,VALID,19.5164,VALID,101,VALID,1.16546,
2002-07-19, 00:10:00,VALID,918.864,VALID,0,VALID,98.6778,VALID,0.0849042,VALID,19.5457,VALID,108,VALID,1.07143,
2002-07-19, 00:11:00,VALID,918.847,VALID,0,VALID,98.7197,VALID,0.0509425,VALID,19.5715,VALID,120,VALID,0.867599,
2002-07-19, 00:12:00,VALID,918.841,VALID,0,VALID,98.6511,VALID,0.0509425,VALID,19.5718,VALID,122,VALID,0.694878,
2002-07-19, 00:13:00,VALID,918.828,VALID,0,VALID,98.5875,VALID,0.101885,VALID,19.5397,VALID,125,VALID,1.00992,
2002-07-19, 00:14:00,VALID,918.812,VALID,0,VALID,98.6053,VALID,0.101885,VALID,19.497,VALID,118,VALID,0.728348,
2002-07-19, 00:15:00,VALID,918.798,VALID,0,VALID,98.6511,VALID,0.0339617,VALID,19.4843,VALID,115,VALID,0.889623,
2002-07-19, 00:16:00,VALID,918.783,VALID,0,VALID,98.6867,VALID,0.0169808,VALID,19.488,VALID,132,VALID,0.779688,
2002-07-19, 00:17:00,VALID,918.77,VALID,0,VALID,98.7808,VALID,0.0509425,VALID,19.5037,VALID,138,VALID,1.1287,
2002-07-19, 00:18:00,VALID,918.749,VALID,0,VALID,98.777,VALID,0.0849042,VALID,19.5134,VALID,134,VALID,1.0319,
2002-07-19, 00:19:00,VALID,918.733,VALID,0,VALID,98.7668,VALID,0.0679233,VALID,19.5104,VALID,133,VALID,0.863387,
2002-07-19, 00:20:00,VALID,918.696,VALID,0,VALID,98.8037,VALID,0.0679233,VALID,19.4935,VALID,132,VALID,0.399777,
2002-07-19, 00:21:00,VALID,918.679,VALID,0,VALID,98.8202,VALID,0.0509425,VALID,19.5074,VALID,127,VALID,0.792468,
2002-07-19, 00:22:00,VALID,918.654,VALID,0,VALID,98.7922,VALID,0.0509425,VALID,19.5012,VALID,117,VALID,0.572321,
2002-07-19, 00:23:00,VALID,918.654,VALID,0,VALID,98.8202,VALID,0.0849042,VALID,19.4714,VALID,119,VALID,0.69778,
2002-07-19, 00:24:00,VALID,918.65,VALID,0,VALID,98.8367,VALID,0.0339617,VALID,19.4749,VALID,106,VALID,0.700738,
2002-07-19, 00:25:00,VALID,918.642,VALID,0,VALID,98.8774,VALID,0.0679233,VALID,19.4808,VALID,105,VALID,0.79223,
2002-07-19, 00:26:00,VALID,918.634,VALID,0,VALID,98.9448,VALID,0.0509425,VALID,19.5169,VALID,102,VALID,0.945759,
2002-07-19, 00:27:00,VALID,918.642,VALID,0,VALID,98.9677,VALID,0.0679233,VALID,19.5323,VALID,109,VALID,1.07873,
2002-07-19, 00:28:00,VALID,918.642,VALID,0,VALID,98.9728,VALID,0.0679233,VALID,19.5591,VALID,116,VALID,0.979911,
2002-07-19, 00:29:00,VALID,918.649,VALID,0,VALID,98.9753,VALID,0.0849042,VALID,19.5648,VALID,111,VALID,0.875822,
2002-07-19, 00:30:00,VALID,918.647,VALID,0,VALID,98.9703,VALID,0.0679233,VALID,19.5616,VALID,118,VALID,0.915148,
2002-07-19, 00:31:00,VALID,918.645,VALID,0,VALID,98.9639,VALID,0.0679233,VALID,19.5618,VALID,122,VALID,0.717483,
2002-07-19, 00:32:00,VALID,918.649,VALID,0,VALID,98.9741,VALID,0.101885,VALID,19.5613,VALID,122,VALID,0.723437,
2002-07-19, 00:33:00,VALID,918.653,VALID,0,VALID,98.9868,VALID,0.0679233,VALID,19.5748,VALID,125,VALID,0.746595,
2002-07-19, 00:34:00,VALID,918.661,VALID,0,VALID,98.9855,VALID,-0.0169808,VALID,19.6023,VALID,125,VALID,0.758036,
2002-07-19, 00:35:00,VALID,918.674,VALID,0,VALID,98.9703,VALID,-0.0169808,VALID,19.5857,VALID,119,VALID,0.778783,
2002-07-19, 00:36:00,VALID,918.673,VALID,0,VALID,98.9715,VALID,-0.0509425,VALID,19.5959,VALID,110,VALID,0.936415,
2002-07-19, 00:37:00,VALID,918.689,VALID,0,VALID,99.0046,VALID,-0.0169808,VALID,19.6344,VALID,111,VALID,0.995355,
2002-07-19, 00:38:00,VALID,918.687,VALID,0,VALID,98.9982,VALID,0,VALID,19.6475,VALID,102,VALID,0.995759,
2002-07-19, 00:39:00,VALID,918.702,VALID,0,VALID,98.9753,VALID,-0.0679233,VALID,19.6505,VALID,99,VALID,0.830529,
2002-07-19, 00:40:00,VALID,918.718,VALID,0,VALID,98.9029,VALID,-0.0339617,VALID,19.6279,VALID,91,VALID,0.924554,
2002-07-19, 00:41:00,VALID,918.733,VALID,0,VALID,98.8927,VALID,0,VALID,19.6249,VALID,86,VALID,1.04379,
2002-07-19, 00:42:00,VALID,918.734,VALID,0,VALID,98.88,VALID,-0.0169808,VALID,19.6244,VALID,100,VALID,0.864149,
2002-07-19, 00:43:00,VALID,918.726,VALID,0,VALID,98.8851,VALID,-0.0509425,VALID,19.6475,VALID,104,VALID,1.15414,
2002-07-19, 00:44:00,VALID,918.698,VALID,0,VALID,98.88,VALID,-0.0509425,VALID,19.6538,VALID,111,VALID,1.56607,
2002-07-19, 00:45:00,VALID,918.678,VALID,0,VALID,98.8202,VALID,-0.0509425,VALID,19.6567,VALID,122,VALID,1.27003,
2002-07-19, 00:46:00,VALID,918.659,VALID,0,VALID,98.7668,VALID,-0.0509425,VALID,19.6664,VALID,129,VALID,0.807366,
2002-07-19, 00:47:00,VALID,918.638,VALID,0,VALID,98.7287,VALID,-0.0339617,VALID,19.6707,VALID,132,VALID,0.820313,
2002-07-19, 00:48:00,VALID,918.602,VALID,0,VALID,98.7045,VALID,-0.0339617,VALID,19.6769,VALID,134,VALID,0.703993,
2002-07-19, 00:49:00,VALID,918.592,VALID,0,VALID,98.6574,VALID,0.0679233,VALID,19.6657,VALID,128,VALID,0.843117,
2002-07-19, 00:50:00,VALID,918.576,VALID,0,VALID,98.618,VALID,0.0509425,VALID,19.6751,VALID,108,VALID,0.612723,
2002-07-19, 00:51:00,VALID,918.563,VALID,0,VALID,98.5443,VALID,0.0509425,VALID,19.6781,VALID,117,VALID,0.464744,
2002-07-19, 00:52:00,VALID,918.555,VALID,0,VALID,98.4743,VALID,0.0509425,VALID,19.6781,VALID,134,VALID,0.857366,
2002-07-19, 00:53:00,VALID,918.532,VALID,0,VALID,98.4324,VALID,0.0509425,VALID,19.6915,VALID,138,VALID,0.805921,
2002-07-19, 00:54:00,VALID,918.529,VALID,0,VALID,98.3434,VALID,0.101885,VALID,19.6781,VALID,125,VALID,0.720052,
2002-07-19, 00:55:00,VALID,918.513,VALID,0,VALID,98.3294,VALID,0.0849042,VALID,19.6851,VALID,138,VALID,1.09797,
2002-07-19, 00:56:00,VALID,918.505,VALID,0,VALID,98.2671,VALID,0.0339617,VALID,19.6786,VALID,126,VALID,0.96942,
2002-07-19, 00:57:00,VALID,918.505,VALID,0,VALID,98.2035,VALID,0.101885,VALID,19.6523,VALID,106,VALID,0.834135,
2002-07-19, 00:58:00,VALID,918.494,VALID,0,VALID,98.2225,VALID,0.101885,VALID,19.6326,VALID,130,VALID,0.792634,
2002-07-19, 00:59:00,VALID,918.495,VALID,0,VALID,98.2454,VALID,0.0509425,VALID,19.6366,VALID,96,VALID,0.938939,
2002-07-19, 01:00:00,VALID,918.47,VALID,0,VALID,98.2098,VALID,0.0509425,VALID,19.6403,VALID,84,VALID,1.04861,
2002-07-19, 01:01:00,VALID,918.453,VALID,0,VALID,98.1666,VALID,0.0679233,VALID,19.6041,VALID,82,VALID,0.949535,
2002-07-19, 01:02:00,VALID,918.442,VALID,0,VALID,98.1628,VALID,0.0849042,VALID,19.5872,VALID,83,VALID,0.910937,
2002-07-19, 01:03:00,VALID,918.432,VALID,0,VALID,98.1361,VALID,0.0339617,VALID,19.578,VALID,85,VALID,1.01062,
2002-07-19, 01:04:00,VALID,918.433,VALID,0,VALID,98.07,VALID,-0.0169808,VALID,19.5663,VALID,85,VALID,0.809821,
2002-07-19, 01:05:00,VALID,918.442,VALID,0,VALID,98.1043,VALID,0.0169808,VALID,19.5506,VALID,91,VALID,0.859169,
2002-07-19, 01:06:00,VALID,918.438,VALID,0,VALID,98.2442,VALID,0.0169808,VALID,19.5631,VALID,99,VALID,0.92513,
2002-07-19, 01:07:00,VALID,918.456,VALID,0,VALID,98.2645,VALID,0,VALID,19.5892,VALID,90,VALID,0.892103,
2002-07-19, 01:08:00,VALID,918.465,VALID,0,VALID,98.2365,VALID,0.0169808,VALID,19.5988,VALID,96,VALID,1.21853,
2002-07-19, 01:09:00,VALID,918.486,VALID,0,VALID,98.1717,VALID,0,VALID,19.6018,VALID,104,VALID,1.23498,
2002-07-19, 01:10:00,VALID,918.493,VALID,0,VALID,98.0763,VALID,0,VALID,19.5954,VALID,90,VALID,0.848437,
2002-07-19, 01:11:00,VALID,918.501,VALID,0,VALID,98.1056,VALID,0.0509425,VALID,19.5889,VALID,102,VALID,0.732319,
2002-07-19, 01:12:00,VALID,918.499,VALID,0,VALID,98.1145,VALID,0.0169808,VALID,19.5921,VALID,96,VALID,0.744358,
2002-07-19, 01:13:00,VALID,918.498,VALID,0,VALID,98.075,VALID,0.0339617,VALID,19.5854,VALID,77,VALID,0.425887,
2002-07-19, 01:14:00,VALID,918.494,VALID,0,VALID,98.0293,VALID,0.0509425,VALID,19.5593,VALID,72,VALID,0.581473,
2002-07-19, 01:15:00,VALID,918.474,VALID,0,VALID,97.9275,VALID,0.0339617,VALID,19.5467,VALID,71,VALID,0.586138,
2002-07-19, 01:16:00,VALID,918.454,VALID,0,VALID,97.8233,VALID,0.0509425,VALID,19.5107,VALID,71,VALID,0.673661,
2002-07-19, 01:17:00,VALID,918.446,VALID,0,VALID,97.8245,VALID,0,VALID,19.5176,VALID,63,VALID,0.966694,
2002-07-19, 01:18:00,VALID,918.428,VALID,0,VALID,97.8652,VALID,0.0169808,VALID,19.531,VALID,65,VALID,1.09462,
2002-07-19, 01:19:00,VALID,918.424,VALID,0,VALID,97.836,VALID,0.0339617,VALID,19.5342,VALID,70,VALID,1.14717,
2002-07-19, 01:20:00,VALID,918.4,VALID,0,VALID,97.8245,VALID,0.0169808,VALID,19.5213,VALID,78,VALID,1.10513,
2002-07-19, 01:21:00,VALID,918.394,VALID,0,VALID,97.8894,VALID,0,VALID,19.5216,VALID,80,VALID,1.11819,
2002-07-19, 01:22:00,VALID,918.377,VALID,0,VALID,97.8449,VALID,0,VALID,19.5052,VALID,79,VALID,1.03013,
2002-07-19, 01:23:00,VALID,918.36,VALID,0,VALID,97.7571,VALID,0,VALID,19.4761,VALID,79,VALID,0.941817,
2002-07-19, 01:24:00,VALID,918.341,VALID,0,VALID,97.705,VALID,0.0169808,VALID,19.4272,VALID,73,VALID,1.05078,
2002-07-19, 01:25:00,VALID,918.349,VALID,0,VALID,97.7559,VALID,0,VALID,19.3887,VALID,80,VALID,1.11634,
2002-07-19, 01:26:00,VALID,918.328,VALID,0,VALID,97.9403,VALID,0,VALID,19.3854,VALID,89,VALID,1.10625,
2002-07-19, 01:27:00,VALID,918.316,VALID,0,VALID,98.0318,VALID,0.0169808,VALID,19.3859,VALID,87,VALID,1.13381,
2002-07-19, 01:28:00,VALID,918.312,VALID,0,VALID,98.1577,VALID,-0.0169808,VALID,19.3859,VALID,91,VALID,1.18482,
2002-07-19, 01:29:00,VALID,918.311,VALID,0,VALID,98.2416,VALID,0,VALID,19.4053,VALID,91,VALID,0.938528,
2002-07-19, 01:30:00,VALID,918.316,VALID,0,VALID,98.2785,VALID,0,VALID,19.3986,VALID,97,VALID,0.806641,
2002-07-19, 01:31:00,VALID,918.329,VALID,0,VALID,98.3535,VALID,0.0339617,VALID,19.3979,VALID,109,VALID,0.818201,
2002-07-19, 01:32:00,VALID,918.322,VALID,0,VALID,98.412,VALID,0.0169808,VALID,19.4341,VALID,109,VALID,0.871205,
2002-07-19, 01:33:00,VALID,918.318,VALID,0,VALID,98.4324,VALID,0.0169808,VALID,19.4465,VALID,116,VALID,0.879407,
2002-07-19, 01:34:00,VALID,918.324,VALID,0,VALID,98.3179,VALID,0,VALID,19.4662,VALID,114,VALID,0.378795,
2002-07-19, 01:35:00,VALID,918.329,VALID,0,VALID,98.2645,VALID,0.0169808,VALID,19.4696,VALID,113,VALID,0.273232,
2002-07-19, 01:36:00,VALID,918.329,VALID,0,VALID,98.2225,VALID,0.0169808,VALID,19.4664,VALID,113,VALID,0.00108507,
2002-07-19, 01:37:00,VALID,918.326,VALID,0,VALID,98.131,VALID,0,VALID,19.4597,VALID,113,VALID,0.222128,
2002-07-19, 01:38:00,VALID,918.329,VALID,0,VALID,98.0344,VALID,0,VALID,19.4401,VALID,113,VALID,0.0962054,
2002-07-19, 01:39:00,VALID,918.316,VALID,0,VALID,97.9606,VALID,0.0169808,VALID,19.4341,VALID,120,VALID,0.293269,
2002-07-19, 01:40:00,VALID,918.312,VALID,0,VALID,97.9619,VALID,0.0169808,VALID,19.4306,VALID,143,VALID,0.538616,
2002-07-19, 01:41:00,VALID,918.303,VALID,0,VALID,97.911,VALID,0,VALID,19.4304,VALID,149,VALID,0.677015,
2002-07-19, 01:42:00,VALID,918.297,VALID,0,VALID,97.9046,VALID,0,VALID,19.4267,VALID,143,VALID,0.611545,
2002-07-19, 01:43:00,VALID,918.297,VALID,0,VALID,97.9085,VALID,0,VALID,19.4503,VALID,136,VALID,0.788218,
2002-07-19, 01:44:00,VALID,918.302,VALID,0,VALID,97.8678,VALID,0,VALID,19.4532,VALID,138,VALID,0.817187,
2002-07-19, 01:45:00,VALID,918.301,VALID,0,VALID,97.8322,VALID,0.0339617,VALID,19.45,VALID,137,VALID,0.728966,
2002-07-19, 01:46:00,VALID,918.289,VALID,0,VALID,97.8347,VALID,0,VALID,19.4473,VALID,140,VALID,0.76183,
2002-07-19, 01:47:00,VALID,918.29,VALID,0,VALID,97.8322,VALID,0,VALID,19.457,VALID,147,VALID,0.777344,
2002-07-19, 01:48:00,VALID,918.291,VALID,0,VALID,97.8373,VALID,0,VALID,19.4662,VALID,155,VALID,0.488932,
2002-07-19, 01:49:00,VALID,918.289,VALID,0,VALID,97.85,VALID,0,VALID,19.4664,VALID,156,VALID,0.600507,
2002-07-19, 01:50:00,VALID,918.29,VALID,0,VALID,97.8385,VALID,0,VALID,19.4696,VALID,155,VALID,0.433705,
2002-07-19, 01:51:00,VALID,918.287,VALID,0,VALID,97.7902,VALID,0,VALID,19.4828,VALID,135,VALID,0.378005,
2002-07-19, 01:52:00,VALID,918.285,VALID,0,VALID,97.6414,VALID,-0.0169808,VALID,19.4793,VALID,103,VALID,0.309375,
2002-07-19, 01:53:00,VALID,918.284,VALID,0,VALID,97.5168,VALID,0,VALID,19.4443,VALID,127,VALID,0.55736,
2002-07-19, 01:54:00,VALID,918.303,VALID,0,VALID,97.5168,VALID,0,VALID,19.4212,VALID,143,VALID,0.632378,
2002-07-19, 01:55:00,VALID,918.311,VALID,0,VALID,97.5105,VALID,0,VALID,19.412,VALID,159,VALID,0.428209,
2002-07-19, 01:56:00,VALID,918.324,VALID,0,VALID,97.5219,VALID,0,VALID,19.3986,VALID,159,VALID,0.386161,
2002-07-19, 01:57:00,VALID,918.318,VALID,0,VALID,97.5893,VALID,0,VALID,19.3988,VALID,161,VALID,0.446715,
2002-07-19, 01:58:00,VALID,918.345,VALID,0,VALID,97.6885,VALID,0,VALID,19.4185,VALID,167,VALID,0.65625,
2002-07-19, 01:59:00,VALID,918.346,VALID,0,VALID,97.7152,VALID,0.0169808,VALID,19.4244,VALID,171,VALID,0.614926,
2002-07-19, 02:00:00,VALID,918.342,VALID,0,VALID,97.6109,VALID,0.0169808,VALID,19.4212,VALID,171,VALID,0.642795,
2002-07-19, 02:01:00,VALID,918.33,VALID,0,VALID,97.485,VALID,0,VALID,19.4085,VALID,168,VALID,0.493454,
2002-07-19, 02:02:00,VALID,918.301,VALID,0,VALID,97.4443,VALID,0.0169808,VALID,19.376,VALID,152,VALID,0.575223,
2002-07-19, 02:03:00,VALID,918.288,VALID,0,VALID,97.4736,VALID,0.0169808,VALID,19.3829,VALID,133,VALID,0.677083,
2002-07-19, 02:04:00,VALID,918.265,VALID,0,VALID,97.5931,VALID,-0.0849042,VALID,19.3971,VALID,128,VALID,0.697321,
2002-07-19, 02:05:00,VALID,918.222,VALID,0,VALID,97.5359,VALID,-0.101885,VALID,19.443,VALID,100,VALID,0.696915,
2002-07-19, 02:06:00,VALID,918.222,VALID,0,VALID,97.5575,VALID,-0.101885,VALID,19.4388,VALID,90,VALID,0.764974,
2002-07-19, 02:07:00,VALID,918.215,VALID,0,VALID,97.4901,VALID,-0.101885,VALID,19.4644,VALID,88,VALID,0.622889,
2002-07-19, 02:08:00,VALID,918.236,VALID,0,VALID,97.2917,VALID,-0.0849042,VALID,19.4674,VALID,90,VALID,0.563616,
2002-07-19, 02:09:00,VALID,918.21,VALID,0,VALID,97.354,VALID,-0.101885,VALID,19.4813,VALID,108,VALID,0.735577,
2002-07-19, 02:10:00,VALID,918.205,VALID,0,VALID,97.2701,VALID,-0.0849042,VALID,19.4848,VALID,116,VALID,0.789955,
2002-07-19, 02:11:00,VALID,918.191,VALID,0,VALID,97.1913,VALID,-0.101885,VALID,19.4845,VALID,112,VALID,0.746505,
2002-07-19, 02:12:00,VALID,918.187,VALID,0,VALID,97.1786,VALID,-0.101885,VALID,19.4907,VALID,101,VALID,0.846137,
2002-07-19, 02:13:00,VALID,918.174,VALID,0,VALID,96.9675,VALID,-0.101885,VALID,19.4619,VALID,89,VALID,0.94299,
2002-07-19, 02:14:00,VALID,918.153,VALID,0,VALID,97.0196,VALID,-0.101885,VALID,19.4617,VALID,89,VALID,1.00513,
2002-07-19, 02:15:00,VALID,918.149,VALID,0,VALID,97.0069,VALID,-0.101885,VALID,19.4487,VALID,88,VALID,0.976162,
2002-07-19, 02:16:00,VALID,918.115,VALID,0,VALID,97.073,VALID,-0.101885,VALID,19.4522,VALID,94,VALID,0.982813,
2002-07-19, 02:17:00,VALID,918.116,VALID,0,VALID,97.0222,VALID,-0.0509425,VALID,19.4388,VALID,93,VALID,1.01254,
2002-07-19, 02:18:00,VALID,918.099,VALID,0,VALID,96.9001,VALID,-0.101885,VALID,19.4229,VALID,87,VALID,1.01649,
2002-07-19, 02:19:00,VALID,918.112,VALID,0,VALID,97.1124,VALID,-0.118866,VALID,19.4264,VALID,90,VALID,1.10874,
2002-07-19, 02:20:00,VALID,918.109,VALID,0,VALID,97.0679,VALID,-0.118866,VALID,19.4358,VALID,85,VALID,1.15714,
2002-07-19, 02:21:00,VALID,918.101,VALID,0,VALID,97.04,VALID,-0.0849042,VALID,19.449,VALID,91,VALID,1.11839,
2002-07-19, 02:22:00,VALID,918.094,VALID,0,VALID,97.1976,VALID,-0.101885,VALID,19.4582,VALID,101,VALID,1.14018,
2002-07-19, 02:23:00,VALID,918.087,VALID,0,VALID,97.1608,VALID,-0.101885,VALID,19.4875,VALID,95,VALID,1.13877,
2002-07-19, 02:24:00,VALID,918.046,VALID,0,VALID,97.1061,VALID,-0.101885,VALID,19.4875,VALID,94,VALID,1.11155,
2002-07-19, 02:25:00,VALID,918.055,VALID,0,VALID,97.0565,VALID,-0.0849042,VALID,19.4902,VALID,97,VALID,1.09861,
2002-07-19, 02:26:00,VALID,918.027,VALID,0,VALID,97.0616,VALID,-0.0509425,VALID,19.5066,VALID,97,VALID,1.0875,
2002-07-19, 02:27:00,VALID,918.02,VALID,0,VALID,97.0463,VALID,-0.0679233,VALID,19.5004,VALID,96,VALID,1.19752,
2002-07-19, 02:28:00,VALID,918.007,VALID,0,VALID,97.0311,VALID,-0.101885,VALID,19.5002,VALID,114,VALID,1.25536,
2002-07-19, 02:29:00,VALID,918.015,VALID,0,VALID,97.012,VALID,-0.0849042,VALID,19.5032,VALID,110,VALID,1.309,
2002-07-19, 02:30:00,VALID,918,VALID,0,VALID,97.0069,VALID,-0.0849042,VALID,19.5029,VALID,109,VALID,1.18294,
2002-07-19, 02:31:00,VALID,918.01,VALID,0,VALID,96.9802,VALID,-0.0679233,VALID,19.5198,VALID,109,VALID,1.18032,
2002-07-19, 02:32:00,VALID,918.013,VALID,0,VALID,96.8734,VALID,-0.0849042,VALID,19.523,VALID,96,VALID,0.964955,
2002-07-19, 02:33:00,VALID,918.003,VALID,0,VALID,96.942,VALID,-0.0509425,VALID,19.5129,VALID,109,VALID,1.11979,
2002-07-19, 02:34:00,VALID,918.009,VALID,0,VALID,96.9281,VALID,0.0169808,VALID,19.5183,VALID,108,VALID,1.025,
2002-07-19, 02:35:00,VALID,918.005,VALID,0,VALID,96.8123,VALID,0.0509425,VALID,19.5146,VALID,123,VALID,0.867599,
2002-07-19, 02:36:00,VALID,918,VALID,0,VALID,96.7882,VALID,0.0169808,VALID,19.5183,VALID,119,VALID,0.621962,
2002-07-19, 02:37:00,VALID,918.005,VALID,0,VALID,96.8212,VALID,0.0339617,VALID,19.5278,VALID,118,VALID,0.710515,
2002-07-19, 02:38:00,VALID,918.009,VALID,0,VALID,96.8034,VALID,0.0169808,VALID,19.5275,VALID,141,VALID,0.427232,
2002-07-19, 02:39:00,VALID,918.015,VALID,0,VALID,96.7538,VALID,0,VALID,19.5345,VALID,134,VALID,0.247396,
2002-07-19, 02:40:00,VALID,918.003,VALID,0,VALID,96.7793,VALID,0,VALID,19.535,VALID,149,VALID,0.470089,
2002-07-19, 02:41:00,VALID,918.005,VALID,0,VALID,96.7729,VALID,0,VALID,19.5407,VALID,109,VALID,0.600123,
2002-07-19, 02:42:00,VALID,918,VALID,0,VALID,96.7297,VALID,0.0169808,VALID,19.567,VALID,127,VALID,0.432075,
2002-07-19, 02:43:00,VALID,918.013,VALID,0,VALID,96.6483,VALID,0,VALID,19.5638,VALID,110,VALID,0.649493,
2002-07-19, 02:44:00,VALID,918.005,VALID,0,VALID,96.586,VALID,0.0509425,VALID,19.5598,VALID,120,VALID,0.809152,
2002-07-19, 02:45:00,VALID,918.012,VALID,0,VALID,96.5364,VALID,0.0169808,VALID,19.5506,VALID,108,VALID,0.812099,
2002-07-19, 02:46:00,VALID,918.008,VALID,0,VALID,96.5618,VALID,0.0169808,VALID,19.5539,VALID,113,VALID,0.873214,
2002-07-19, 02:47:00,VALID,918,VALID,0,VALID,96.558,VALID,0,VALID,19.537,VALID,114,VALID,0.887952,
2002-07-19, 02:48:00,VALID,918.007,VALID,0,VALID,96.5809,VALID,0,VALID,19.5273,VALID,111,VALID,1.02192,
2002-07-19, 02:49:00,VALID,917.994,VALID,0,VALID,96.6483,VALID,0,VALID,19.5417,VALID,113,VALID,1.00929,
2002-07-19, 02:50:00,VALID,917.996,VALID,0,VALID,96.5644,VALID,0.0169808,VALID,19.5243,VALID,103,VALID,0.964732,
2002-07-19, 02:51:00,VALID,917.988,VALID,0,VALID,96.633,VALID,0,VALID,19.5442,VALID,107,VALID,0.90004,
2002-07-19, 02:52:00,VALID,917.983,VALID,0,VALID,96.5517,VALID,0,VALID,19.5308,VALID,100,VALID,0.675,
2002-07-19, 02:53:00,VALID,917.976,VALID,0,VALID,96.4868,VALID,0.0509425,VALID,19.5146,VALID,91,VALID,0.649877,
2002-07-19, 02:54:00,VALID,917.963,VALID,0,VALID,96.5008,VALID,0.0169808,VALID,19.5017,VALID,88,VALID,0.645616,
2002-07-19, 02:55:00,VALID,917.962,VALID,0,VALID,96.4677,VALID,0.0169808,VALID,19.5019,VALID,86,VALID,0.631334,
2002-07-19, 02:56:00,VALID,917.952,VALID,0,VALID,96.3876,VALID,0.0169808,VALID,19.4791,VALID,82,VALID,0.50558,
2002-07-19, 02:57:00,VALID,917.945,VALID,0,VALID,96.3762,VALID,0,VALID,19.4567,VALID,79,VALID,0.54387,
2002-07-19, 02:58:00,VALID,917.941,VALID,0,VALID,96.2795,VALID,0,VALID,19.4376,VALID,89,VALID,0.338393,
2002-07-19, 02:59:00,VALID,917.929,VALID,0,VALID,95.9871,VALID,0.0169808,VALID,19.376,VALID,68,VALID,0.402755,
2002-07-19, 03:00:00,VALID,917.914,VALID,0,VALID,95.7785,VALID,0,VALID,19.2987,VALID,38,VALID,0.501736,
2002-07-19, 03:01:00,VALID,917.927,VALID,0,VALID,95.9909,VALID,0.0339617,VALID,19.253,VALID,32,VALID,0.495777,
2002-07-19, 03:02:00,VALID,917.93,VALID,0,VALID,96.1613,VALID,0.0509425,VALID,19.2406,VALID,32,VALID,0.447321,
2002-07-19, 03:03:00,VALID,917.933,VALID,0,VALID,96.3228,VALID,0.0169808,VALID,19.2242,VALID,32,VALID,0.345152,
2002-07-19, 03:04:00,VALID,917.931,VALID,0,VALID,96.5466,VALID,-0.0169808,VALID,19.2145,VALID,32,VALID,0.247991,
2002-07-19, 03:05:00,VALID,917.943,VALID,0,VALID,96.5466,VALID,-0.0169808,VALID,19.1884,VALID,32,VALID,0.234786,
2002-07-19, 03:06:00,VALID,917.943,VALID,0,VALID,96.5402,VALID,-0.0339617,VALID,19.1628,VALID,32,VALID,0.225694,
2002-07-19, 03:07:00,VALID,917.96,VALID,0,VALID,96.6013,VALID,-0.0169808,VALID,19.1504,VALID,37,VALID,0.314189,
2002-07-19, 03:08:00,VALID,917.971,VALID,0,VALID,96.8441,VALID,0,VALID,19.1603,VALID,67,VALID,0.602232,
2002-07-19, 03:09:00,VALID,917.969,VALID,0,VALID,97.2549,VALID,-0.0169808,VALID,19.2018,VALID,96,VALID,0.735176,
2002-07-19, 03:10:00,VALID,917.978,VALID,0,VALID,97.4774,VALID,0,VALID,19.253,VALID,102,VALID,0.76317,
2002-07-19, 03:11:00,VALID,917.969,VALID,0,VALID,97.4176,VALID,-0.0169808,VALID,19.292,VALID,107,VALID,0.739515,
2002-07-19, 03:12:00,VALID,917.969,VALID,0,VALID,97.3045,VALID,0,VALID,19.3116,VALID,108,VALID,0.632813,
2002-07-19, 03:13:00,VALID,917.97,VALID,0,VALID,97.3362,VALID,-0.0169808,VALID,19.3149,VALID,113,VALID,0.874367,
2002-07-19, 03:14:00,VALID,917.987,VALID,0,VALID,97.3744,VALID,0,VALID,19.327,VALID,120,VALID,0.853795,
2002-07-19, 03:15:00,VALID,917.98,VALID,0,VALID,97.2841,VALID,0,VALID,19.3442,VALID,120,VALID,0.934495,
2002-07-19, 03:16:00,VALID,917.985,VALID,0,VALID,97.2154,VALID,0,VALID,19.3601,VALID,109,VALID,0.967188,
2002-07-19, 03:17:00,VALID,917.984,VALID,0,VALID,97.1595,VALID,0,VALID,19.3568,VALID,121,VALID,0.823191,
2002-07-19, 03:18:00,VALID,917.987,VALID,0,VALID,97.1112,VALID,0,VALID,19.3631,VALID,132,VALID,0.597873,
2002-07-19, 03:19:00,VALID,917.966,VALID,0,VALID,97.1226,VALID,0.0169808,VALID,19.3591,VALID,138,VALID,0.798986,
2002-07-19, 03:20:00,VALID,917.968,VALID,0,VALID,97.1468,VALID,-0.0169808,VALID,19.3919,VALID,145,VALID,0.983259,
2002-07-19, 03:21:00,VALID,917.957,VALID,0,VALID,97.1086,VALID,-0.0169808,VALID,19.4018,VALID,142,VALID,1.10056,
2002-07-19, 03:22:00,VALID,917.944,VALID,0,VALID,97.0158,VALID,0,VALID,19.4249,VALID,144,VALID,0.939955,
2002-07-19, 03:23:00,VALID,917.938,VALID,0,VALID,96.8657,VALID,-0.0679233,VALID,19.4413,VALID,139,VALID,0.796464,
2002-07-19, 03:24:00,VALID,917.947,VALID,0,VALID,96.7271,VALID,-0.0169808,VALID,19.4214,VALID,134,VALID,0.670139,
2002-07-19, 03:25:00,VALID,917.922,VALID,0,VALID,96.7449,VALID,0,VALID,19.4117,VALID,121,VALID,0.907939,
2002-07-19, 03:26:00,VALID,917.935,VALID,0,VALID,96.7882,VALID,0,VALID,19.4247,VALID,119,VALID,0.871205,
2002-07-19, 03:27:00,VALID,917.943,VALID,0,VALID,96.82,VALID,0,VALID,19.4311,VALID,121,VALID,0.947516,
2002-07-19, 03:28:00,VALID,917.938,VALID,0,VALID,96.8034,VALID,0,VALID,19.454,VALID,121,VALID,1.05714,
2002-07-19, 03:29:00,VALID,917.942,VALID,0,VALID,96.6419,VALID,-0.0339617,VALID,19.4503,VALID,118,VALID,0.860609,
2002-07-19, 03:30:00,VALID,917.948,VALID,0,VALID,96.7119,VALID,-0.0169808,VALID,19.4734,VALID,122,VALID,0.872396,
2002-07-19, 03:31:00,VALID,917.943,VALID,0,VALID,96.5402,VALID,0,VALID,19.4923,VALID,129,VALID,0.325591,
2002-07-19, 03:32:00,VALID,917.956,VALID,0,VALID,96.2986,VALID,-0.0339617,VALID,19.4831,VALID,129,VALID,0.347545,
2002-07-19, 03:33:00,VALID,917.954,VALID,0,VALID,96.1943,VALID,0,VALID,19.4505,VALID,129,VALID,0.376603,
2002-07-19, 03:34:00,VALID,917.959,VALID,0,VALID,96.1982,VALID,-0.0339617,VALID,19.4475,VALID,129,VALID,0.55,